Location: Cormont
(50.5693°N, 1.7416°E)
Time: 15:03:13
(UTC+00:00)

STARLINK-65 - Pass Details

Date: 21 October 2019
Orbit: 548 x 551 km, 53.0° (Epoch: 22 November)

Event Time Altitude Azimuth Distance (km) Brightness Sun altitude
Rises 18:37:24 0° 280° (W) 2,720 8.9 -17.8°
Reaches altitude 10° 18:39:39 10° 284° (WNW) 1,826 7.5 -18.1°
Maximum altitude 18:43:46 63° 6° (N) 620 3.8 -18.8°
Enters shadow 18:44:51 44° 65° (ENE) 766 3.9 -19.0°
